QFA55 PAFA-PANC

Flight info

Callsign QFA55
Flight time 0h 48m
Altitude 33000
Route PUYVO5 PUYVO KROTO5
Aircraft B738/M-SDE2E3FGHIRWXY/LB1

Departure

Time 2026-04-24 12:35
Airport Fairbanks International Airport (PAFA)

Arrival

Time 2026-04-24 13:23
Airport Ted Stevens Anchorage International Airport (PANC)
Time Latitude Longitude Altitude Speed Heading
2026-04-24 12:10 64.81645 -147.86850 443 ft 0 kts 14°
2026-04-24 12:27 64.81640 -147.86852 442 ft 3 kts 12°
2026-04-24 12:27 64.81617 -147.86866 442 ft 3 kts 14°
2026-04-24 12:27 64.81594 -147.86879 442 ft 3 kts 14°
2026-04-24 12:28 64.81570 -147.86893 442 ft 3 kts 14°
2026-04-24 12:28 64.81557 -147.86915 442 ft 2 kts 96°
2026-04-24 12:28 64.81565 -147.86954 442 ft 0 kts 121°
2026-04-24 12:30 64.81565 -147.86953 442 ft 0 kts 121°
2026-04-24 12:30 64.81548 -147.86897 442 ft 8 kts 127°
2026-04-24 12:31 64.81509 -147.86784 442 ft 10 kts 137°
2026-04-24 12:31 64.81416 -147.86795 442 ft 19 kts 217°
2026-04-24 12:31 64.81305 -147.87000 442 ft 22 kts 218°
2026-04-24 12:31 64.81181 -147.87233 442 ft 24 kts 218°
2026-04-24 12:32 64.81044 -147.87478 442 ft 25 kts 218°
2026-04-24 12:32 64.80908 -147.87730 442 ft 25 kts 218°
2026-04-24 12:32 64.80771 -147.87982 442 ft 25 kts 218°
2026-04-24 12:32 64.80634 -147.88234 442 ft 25 kts 218°
2026-04-24 12:33 64.80497 -147.88485 442 ft 25 kts 218°
2026-04-24 12:33 64.80395 -147.88670 442 ft 12 kts 216°
2026-04-24 12:33 64.80323 -147.88708 442 ft 11 kts 143°
2026-04-24 12:33 64.80292 -147.88568 442 ft 10 kts 68°
2026-04-24 12:34 64.80393 -147.88354 443 ft 40 kts 39°
2026-04-24 12:34 64.80773 -147.87651 443 ft 98 kts 38°
2026-04-24 12:34 64.81448 -147.86410 443 ft 147 kts 38°
2026-04-24 12:34 64.82335 -147.84776 688 ft 163 kts 38°
2026-04-24 12:35 64.83224 -147.83147 1270 ft 168 kts 38°
2026-04-24 12:35 64.84164 -147.81394 1810 ft 173 kts 37°
2026-04-24 12:35 64.85207 -147.80023 2430 ft 176 kts 11°
2026-04-24 12:35 64.86404 -147.80677 2917 ft 188 kts 322°
2026-04-24 12:36 64.87064 -147.83407 3432 ft 202 kts 277°
2026-04-24 12:36 64.86772 -147.86709 3826 ft 217 kts 239°
2026-04-24 12:36 64.85828 -147.89552 4290 ft 231 kts 223°
2026-04-24 12:36 64.84607 -147.92287 4735 ft 250 kts 223°
2026-04-24 12:37 64.83396 -147.95340 5358 ft 260 kts 228°
2026-04-24 12:37 64.82261 -147.98705 6142 ft 264 kts 231°
2026-04-24 12:37 64.81160 -148.02193 6919 ft 268 kts 231°
2026-04-24 12:37 64.80035 -148.05728 7677 ft 272 kts 230°
2026-04-24 12:38 64.78877 -148.09261 8436 ft 275 kts 229°
2026-04-24 12:38 64.77692 -148.12810 9199 ft 277 kts 229°
2026-04-24 12:38 64.76499 -148.16367 10012 ft 277 kts 229°
2026-04-24 12:39 64.72642 -148.27889 11282 ft 316 kts 229°
2026-04-24 12:39 64.71285 -148.31948 12083 ft 316 kts 228°
2026-04-24 12:39 64.69733 -148.35544 12849 ft 315 kts 217°
2026-04-24 12:40 64.67926 -148.38476 13590 ft 317 kts 213°
2026-04-24 12:40 64.66706 -148.40375 14043 ft 320 kts 212°
2026-04-24 12:40 64.64811 -148.43283 14739 ft 323 kts 212°
2026-04-24 12:40 64.62918 -148.46175 15425 ft 327 kts 212°
2026-04-24 12:41 64.61003 -148.49111 16105 ft 331 kts 212°
2026-04-24 12:41 64.59070 -148.52083 16771 ft 335 kts 213°
2026-04-24 12:41 64.56471 -148.56074 17641 ft 341 kts 213°
2026-04-24 12:41 64.55128 -148.58131 18086 ft 343 kts 213°
2026-04-24 12:42 64.53123 -148.61194 18750 ft 346 kts 213°
2026-04-24 12:42 64.51104 -148.64271 19425 ft 349 kts 213°
2026-04-24 12:42 64.49066 -148.67372 20091 ft 351 kts 213°
2026-04-24 12:42 64.47023 -148.70476 20741 ft 353 kts 213°
2026-04-24 12:43 64.44961 -148.73604 21363 ft 355 kts 213°
2026-04-24 12:43 64.42891 -148.76738 21971 ft 357 kts 213°
2026-04-24 12:43 64.40802 -148.79894 22565 ft 359 kts 213°
2026-04-24 12:43 64.38702 -148.83061 23121 ft 362 kts 213°
2026-04-24 12:44 64.36589 -148.86241 23660 ft 364 kts 213°
2026-04-24 12:44 64.34459 -148.89437 24190 ft 366 kts 213°
2026-04-24 12:44 64.32322 -148.92643 24703 ft 368 kts 213°
2026-04-24 12:44 64.30170 -148.95871 25228 ft 369 kts 213°
2026-04-24 12:45 64.28021 -148.99131 25720 ft 370 kts 213°
2026-04-24 12:45 64.25872 -149.02409 26209 ft 371 kts 213°
2026-04-24 12:45 64.23712 -149.05694 26638 ft 374 kts 213°
2026-04-24 12:45 64.21527 -149.08997 26932 ft 378 kts 213°
2026-04-24 12:46 64.19308 -149.12334 26970 ft 382 kts 213°
2026-04-24 12:46 64.17100 -149.15648 26974 ft 378 kts 213°
2026-04-24 12:46 64.14897 -149.18952 26979 ft 379 kts 213°
2026-04-24 12:46 64.12697 -149.22249 26982 ft 377 kts 213°
2026-04-24 12:47 64.10500 -149.25533 26985 ft 377 kts 213°
2026-04-24 12:47 64.08304 -149.28810 26987 ft 377 kts 213°
2026-04-24 12:47 64.06011 -149.31892 26996 ft 378 kts 205°
2026-04-24 12:47 64.03523 -149.33836 27000 ft 380 kts 195°
2026-04-24 12:48 64.00937 -149.35131 27001 ft 380 kts 194°
2026-04-24 12:48 63.98350 -149.36347 26993 ft 378 kts 193°
2026-04-24 12:48 63.95790 -149.37504 26997 ft 375 kts 193°
2026-04-24 12:48 63.93223 -149.38672 26998 ft 377 kts 193°
2026-04-24 12:49 63.90657 -149.39863 26998 ft 376 kts 194°
2026-04-24 12:49 63.88090 -149.41068 26999 ft 377 kts 194°
2026-04-24 12:49 63.85520 -149.42272 26999 ft 377 kts 194°
2026-04-24 12:49 63.82947 -149.43465 27000 ft 377 kts 193°
2026-04-24 12:50 63.80377 -149.44649 27000 ft 377 kts 193°
2026-04-24 12:50 63.77802 -149.45833 27001 ft 377 kts 193°
2026-04-24 12:50 63.75231 -149.47015 27000 ft 377 kts 193°
2026-04-24 12:50 63.72657 -149.48199 27008 ft 377 kts 194°
2026-04-24 12:51 63.70090 -149.49378 27016 ft 376 kts 194°
2026-04-24 12:51 63.67526 -149.50552 27005 ft 376 kts 194°
2026-04-24 12:51 63.64958 -149.51723 27005 ft 377 kts 194°
2026-04-24 12:51 63.62397 -149.52891 27011 ft 376 kts 194°
2026-04-24 12:52 63.59828 -149.54063 27017 ft 376 kts 194°
2026-04-24 12:52 63.57260 -149.55230 27014 ft 377 kts 194°
2026-04-24 12:52 63.54701 -149.56390 27010 ft 375 kts 194°
2026-04-24 12:52 63.52141 -149.57548 27003 ft 375 kts 193°
2026-04-24 12:53 63.49581 -149.58703 27001 ft 375 kts 193°
2026-04-24 12:53 63.47020 -149.59857 27009 ft 374 kts 194°
2026-04-24 12:53 63.44473 -149.61005 27012 ft 374 kts 193°
2026-04-24 12:53 63.41915 -149.62152 27000 ft 375 kts 194°
2026-04-24 12:54 63.39360 -149.63297 27013 ft 373 kts 193°
2026-04-24 12:54 63.36782 -149.64451 27021 ft 374 kts 193°
2026-04-24 12:54 63.34229 -149.65593 27016 ft 374 kts 193°
2026-04-24 12:54 63.31677 -149.66731 27035 ft 374 kts 193°
2026-04-24 12:55 63.29131 -149.67864 27029 ft 373 kts 194°
2026-04-24 12:55 63.26586 -149.68993 27011 ft 372 kts 194°
2026-04-24 12:55 63.24059 -149.70113 27024 ft 371 kts 193°
2026-04-24 12:55 63.21519 -149.71239 27025 ft 371 kts 193°
2026-04-24 12:56 63.18993 -149.72356 27041 ft 370 kts 194°
2026-04-24 12:56 63.16466 -149.73470 27025 ft 371 kts 193°
2026-04-24 12:56 63.13938 -149.74584 27037 ft 369 kts 193°
2026-04-24 12:56 63.11419 -149.75691 27031 ft 370 kts 193°
2026-04-24 12:57 63.08903 -149.76795 27036 ft 368 kts 193°
2026-04-24 12:57 63.06388 -149.77897 27041 ft 369 kts 193°
2026-04-24 12:57 63.03876 -149.78996 27046 ft 367 kts 193°
2026-04-24 12:57 63.01369 -149.80089 27048 ft 368 kts 193°
2026-04-24 12:58 62.98862 -149.81182 27050 ft 366 kts 193°
2026-04-24 12:58 62.96358 -149.82271 27052 ft 366 kts 194°
2026-04-24 12:58 62.93865 -149.83353 27056 ft 366 kts 193°
2026-04-24 12:58 62.91370 -149.84435 27059 ft 365 kts 194°
2026-04-24 12:59 62.88880 -149.85512 27062 ft 365 kts 194°
2026-04-24 12:59 62.86388 -149.86589 27065 ft 364 kts 194°
2026-04-24 12:59 62.83906 -149.87659 27068 ft 364 kts 193°
2026-04-24 12:59 62.81430 -149.88724 27071 ft 362 kts 193°
2026-04-24 13:00 62.78955 -149.89788 27073 ft 362 kts 193°
2026-04-24 13:00 62.76485 -149.90847 27077 ft 362 kts 193°
2026-04-24 13:00 62.74014 -149.91906 27079 ft 362 kts 193°
2026-04-24 13:00 62.71556 -149.92956 26870 ft 358 kts 193°
2026-04-24 13:01 62.69130 -149.93989 26392 ft 351 kts 193°
2026-04-24 13:01 62.66754 -149.95000 25954 ft 345 kts 193°
2026-04-24 13:01 62.64396 -149.96002 25568 ft 336 kts 193°
2026-04-24 13:01 62.62158 -149.96951 25565 ft 319 kts 193°
2026-04-24 13:02 62.59991 -149.97870 25409 ft 322 kts 193°
2026-04-24 13:02 62.57744 -149.98832 25041 ft 332 kts 193°
2026-04-24 13:02 62.55497 -149.99784 24613 ft 326 kts 193°
2026-04-24 13:02 62.53285 -150.00713 24184 ft 323 kts 193°
2026-04-24 13:03 62.51079 -150.01640 23750 ft 323 kts 193°
2026-04-24 13:03 62.48880 -150.02565 23317 ft 320 kts 193°
2026-04-24 13:03 62.46699 -150.03483 22889 ft 319 kts 193°
2026-04-24 13:03 62.44524 -150.04397 22459 ft 317 kts 193°
2026-04-24 13:04 62.42368 -150.05300 22035 ft 315 kts 193°
2026-04-24 13:04 62.40212 -150.06202 21610 ft 315 kts 193°
2026-04-24 13:04 62.38073 -150.07096 21188 ft 313 kts 193°
2026-04-24 13:04 62.35936 -150.07986 20767 ft 312 kts 192°
2026-04-24 13:05 62.33812 -150.08870 20348 ft 311 kts 192°
2026-04-24 13:05 62.31691 -150.09753 19929 ft 309 kts 192°
2026-04-24 13:05 62.29583 -150.10627 19514 ft 308 kts 192°
2026-04-24 13:05 62.27475 -150.11399 19099 ft 307 kts 190°
2026-04-24 13:06 62.25357 -150.12059 18685 ft 307 kts 189°
2026-04-24 13:06 62.23248 -150.12695 18272 ft 306 kts 189°
2026-04-24 13:06 62.21144 -150.13357 17860 ft 305 kts 190°
2026-04-24 13:06 62.19052 -150.14046 17449 ft 303 kts 190°
2026-04-24 13:07 62.16977 -150.14737 17041 ft 301 kts 190°
2026-04-24 13:07 62.14913 -150.15418 16636 ft 299 kts 189°
2026-04-24 13:07 62.12865 -150.16086 16233 ft 297 kts 189°
2026-04-24 13:07 62.10829 -150.16746 15833 ft 295 kts 189°
2026-04-24 13:08 62.08772 -150.17412 15391 ft 295 kts 189°
2026-04-24 13:08 62.06766 -150.18063 14972 ft 289 kts 188°
2026-04-24 13:08 62.04803 -150.18700 14574 ft 282 kts 188°
2026-04-24 13:09 62.00959 -150.19942 13821 ft 285 kts 188°
2026-04-24 13:09 61.99008 -150.20572 13441 ft 280 kts 187°
2026-04-24 13:09 61.97108 -150.21186 13057 ft 272 kts 187°
2026-04-24 13:09 61.95254 -150.21785 12695 ft 269 kts 187°
2026-04-24 13:10 61.93364 -150.22390 12329 ft 277 kts 187°
2026-04-24 13:10 61.91478 -150.22995 11950 ft 270 kts 187°
2026-04-24 13:10 61.89648 -150.23586 11597 ft 264 kts 186°
2026-04-24 13:10 61.87769 -150.24183 11238 ft 282 kts 186°
2026-04-24 13:11 61.85839 -150.24798 10846 ft 277 kts 186°
2026-04-24 13:11 61.83952 -150.25405 10480 ft 273 kts 186°
2026-04-24 13:11 61.82099 -150.26000 10383 ft 265 kts 186°
2026-04-24 13:11 61.80303 -150.26575 10283 ft 257 kts 186°
2026-04-24 13:12 61.78565 -150.27130 10169 ft 249 kts 186°
2026-04-24 13:12 61.76873 -150.27667 10073 ft 243 kts 185°
2026-04-24 13:12 61.75210 -150.28193 9918 ft 242 kts 185°
2026-04-24 13:12 61.73524 -150.28722 9625 ft 247 kts 185°
2026-04-24 13:13 61.71820 -150.29260 9332 ft 250 kts 185°
2026-04-24 13:13 61.70095 -150.29651 9052 ft 248 kts 175°
2026-04-24 13:13 61.68415 -150.29077 8789 ft 245 kts 163°
2026-04-24 13:13 61.66765 -150.28160 8459 ft 246 kts 163°
2026-04-24 13:14 61.65654 -150.27526 8248 ft 243 kts 163°
2026-04-24 13:14 61.63506 -150.26287 7866 ft 241 kts 162°
2026-04-24 13:14 61.62413 -150.25658 7665 ft 241 kts 163°
2026-04-24 13:14 61.60802 -150.24736 7364 ft 238 kts 163°
2026-04-24 13:15 61.59223 -150.23838 7068 ft 232 kts 162°
2026-04-24 13:15 61.57681 -150.22961 6791 ft 229 kts 163°
2026-04-24 13:15 61.56139 -150.22084 6507 ft 229 kts 163°
2026-04-24 13:15 61.54609 -150.21215 6225 ft 228 kts 163°
2026-04-24 13:16 61.53081 -150.20348 5951 ft 227 kts 163°
2026-04-24 13:16 61.51552 -150.19480 5671 ft 229 kts 162°
2026-04-24 13:16 61.50021 -150.18611 5398 ft 228 kts 163°
2026-04-24 13:16 61.48480 -150.17732 5124 ft 230 kts 163°
2026-04-24 13:17 61.46943 -150.16833 4843 ft 230 kts 162°
2026-04-24 13:17 61.45399 -150.15924 4564 ft 231 kts 163°
2026-04-24 13:17 61.43848 -150.15017 4284 ft 230 kts 163°
2026-04-24 13:17 61.42294 -150.14113 3999 ft 233 kts 163°
2026-04-24 13:18 61.40741 -150.13207 3719 ft 233 kts 163°
2026-04-24 13:18 61.39216 -150.12335 3611 ft 220 kts 163°
2026-04-24 13:18 61.37774 -150.11515 3547 ft 212 kts 163°
2026-04-24 13:18 61.36366 -150.10715 3525 ft 208 kts 163°
2026-04-24 13:19 61.34971 -150.09923 3391 ft 211 kts 163°
2026-04-24 13:19 61.33542 -150.09113 3095 ft 211 kts 163°
2026-04-24 13:19 61.32141 -150.08320 2792 ft 207 kts 163°
2026-04-24 13:19 61.30773 -150.07546 2517 ft 200 kts 163°
2026-04-24 13:20 61.29473 -150.06812 2226 ft 186 kts 163°
2026-04-24 13:20 61.28271 -150.06134 1984 ft 174 kts 163°
2026-04-24 13:20 61.27119 -150.05483 1732 ft 169 kts 163°
2026-04-24 13:20 61.26001 -150.04853 1502 ft 163 kts 162°
2026-04-24 13:21 61.24960 -150.04267 1332 ft 144 kts 162°
2026-04-24 13:21 61.24012 -150.03760 1062 ft 136 kts 163°
2026-04-24 13:21 61.23104 -150.03224 841 ft 136 kts 161°
2026-04-24 13:21 61.22165 -150.02675 676 ft 143 kts 163°
2026-04-24 13:22 61.21217 -150.02152 515 ft 138 kts 162°
2026-04-24 13:22 61.20305 -150.01643 268 ft 134 kts 162°
2026-04-24 13:22 61.19407 -150.01138 163 ft 127 kts 162°
2026-04-24 13:22 61.18728 -150.00746 161 ft 77 kts 165°
2026-04-24 13:23 61.18262 -150.00487 161 ft 62 kts 166°
2026-04-24 13:23 61.17965 -150.00293 161 ft 29 kts 153°
2026-04-24 13:23 61.17824 -150.00088 161 ft 23 kts 133°
2026-04-24 13:23 61.17724 -149.99887 161 ft 17 kts 144°
2026-04-24 13:24 61.17668 -149.99721 161 ft 15 kts 86°
2026-04-24 13:24 61.17679 -149.99542 161 ft 10 kts 100°
2026-04-24 13:24 61.17650 -149.99447 161 ft 7 kts 130°
2026-04-24 13:24 61.17635 -149.99331 161 ft 11 kts 78°
2026-04-24 13:25 61.17657 -149.99151 161 ft 15 kts 91°
2026-04-24 13:25 61.17674 -149.98934 161 ft 15 kts 70°
2026-04-24 13:25 61.17668 -149.98752 161 ft 14 kts 137°
2026-04-24 13:25 61.17597 -149.98663 161 ft 10 kts 112°
2026-04-24 13:26 61.17577 -149.98518 161 ft 7 kts 104°
2026-04-24 13:26 61.17573 -149.98481 161 ft 0 kts 104°